sat.trackr.live / text

‹ back to catalog

STARLINK-5487

NORAD 55652 · 2023-021AA

PAYLOAD ACTIVE UNKNOWN

§ Identity

Operator
Country
US
Launch date
2023-02-17
Launch site
AFWTR
Launch vehicle
Mass (kg)
RCS (m²)

Purposes: comms

External: N2YO · Heavens-Above · Gunter

§ Orbital elements

Epoch: 2026-09-20T21:36:04.759776Z

Period
96.11 min
Inclination
69.9998°
Eccentricity
0.0002658
Mean motion
14.98322464 rev/d
Perigee alt
570.2 km
Apogee alt
573.9 km
Semi-major
6,950.2 km
B*
-5.1973e-5
RAAN
52.1968°
Arg perigee
273.8722°
Mean anomaly
86.2133°
Rev number
19,803

§ Raw data

STARLINK-54871 55652U 23021AA  26263.90005509 -.00000713  00000+0 -51973-4 0  99992 55652  69.9998  52.1968 0002658 273.8722  86.2133 14.98322464198035

JSON: /api/v1/satellites/55652 · /tle

For live sub-satellite position, see the globe view (requires WebGL).

§ Visibility from observer

Set your observer location to see the next 7 days of passes ≥ 10°. The values pass through the URL so the page stays shareable.

No JS? Fill the form by hand. The geolocation button needs JavaScript.